Retour au catalogue

FENGYUN 1C DEB

ActifSSO
NORAD 30510·DEBRIS·🇨🇳 China

Lancé May 10, 1999 depuis Taiyuan Satellite Launch Center

Loading…

Prochains Passages (prochaines 24 heures)

TLE

FraisSource: Space-Track

Époque: Sep 14, 2026, 01:20 UTC

1 30510U 99025AHY 26257.05616071  .00001457  00000-0  76734-3 0  9999
2 30510  99.2331 283.0781 0078947 114.2253 272.9825 14.14042318  4614

Suivez FENGYUN 1C DEB en temps réel avec AllMySat

Download on the App Store